[[{"header":{"parameterUnit":"m.s-1","parameterCategory":1,"la1":30.2991,"la2":30.254,"lo1":-89.0895,"lo2":-89.0444,"dy":0.0017,"dx":0.0017,"nx":28,"ny":28,"refTime":"2024-07-05T03:00:00:Z","depth":0,"parameterNumber":2,"parameterNumberName":"U-component_of_WINDS"},"data":[0,0,0,0,0,0,0,0,0,0,0,0,0,0,0,0,0,0,0,0,0,0,0,0,0,0,0,0,0,0,0,0,0,0,0,0,0,0,0,0,0,0,0,0,0,0,0,0,0,0,0,0,0,0,0,0,0,0,1.2394,1.2395,0,1.2506,1.2507,1.2508,1.2569,1.2569,1.257,1.257,1.2689,1.2692,1.2695,0,0,0,0,0,0,0,0,0,0,0,0,0,1.224,1.2243,1.2394,1.2395,1.2397,1.2505,1.2507,1.2508,1.2569,1.2569,1.257,1.257,1.2688,1.2692,1.2695,0,0,0,0,0,0,0,0,0,0,0,0,0,1.2325,1.2243,1.2394,1.244,1.2445,1.2505,1.2507,1.2509,1.2569,1.2569,1.257,1.257,1.2687,1.2691,1.2696,1.2719,0,0,1.271,1.2712,0,0,0,0,0,0,0,0,1.232,1.2331,1.2432,1.2437,1.2443,1.2524,1.2497,1.258,1.2569,1.2522,1.257,1.257,1.2634,1.2643,1.2664,1.2725,1.273,1.271,1.2713,1.2715,1.2716,0,0,0,0,0,0,0,1.2314,1.2326,1.2438,1.2433,1.244,1.2458,1.247,1.2513,1.2576,1.2526,1.2531,1.2543,1.2637,1.2659,1.2667,1.2732,1.271,1.2714,1.2717,1.2719,1.2821,1.2821,0,0,0,0,0,0,1.23,1.2321,1.2435,1.2442,1.2381,1.246,1.2474,1.2498,1.2575,1.2587,1.2543,1.2546,1.2651,1.2661,1.2671,1.2705,1.2715,1.2719,1.2722,1.2821,1.2821,1.2821,0,0,0,0,0,0,1.2296,1.231,1.243,1.2383,1.2399,1.2462,1.2489,1.25,1.2522,1.2588,1.26,1.2553,1.2652,1.2665,1.2707,1.271,1.2721,1.2725,1.2821,1.2821,1.2821,1.2772,0,0,0,0,0,0,1.2292,1.2308,1.2316,1.2382,1.2401,1.2462,1.2489,1.2502,1.2529,1.2533,1.2601,1.2612,1.2653,1.27,1.2712,1.2717,1.2729,1.2821,1.2821,1.2821,1.2774,1.2771,1.2768,0,0,0,0,0,1.2286,1.2298,1.2316,1.2329,1.2412,1.2462,1.2473,1.2518,1.2528,1.2538,1.2581,1.261,1.2708,1.2704,1.2717,1.2724,1.2821,1.2821,1.2821,1.2775,1.2771,1.2768,0,0,0,0,0,0,1.2232,1.2308,1.2328,1.2362,1.2405,1.2472,1.2485,1.2513,1.2555,1.2558,1.2614,1.2629,1.2666,1.27,1.2693,1.2752,1.2768,1.277,1.2728,1.2725,1.2722,1.2713,1.2733,0,0,0,0,0,1.2223,1.2255,1.2321,1.2345,1.2365,1.2421,1.2445,1.2476,1.2524,1.2543,1.2589,1.2635,1.2677,1.2703,1.2745,1.2779,1.2796,1.2791,1.2788,1.2785,1.2787,1.2809,1.2808,1.2821,1.2821,1.2821,0,0,1.2207,1.2253,1.227,1.2335,1.2372,1.2406,1.2436,1.2471,1.2497,1.2548,1.2591,1.2626,1.2683,1.2721,1.2741,1.275,1.2787,1.2785,1.2782,1.2785,1.2809,1.2808,1.2807,1.2821,1.2821,1.2821,0,0,1.2194,1.2231,1.2256,1.2292,1.2348,1.2386,1.2391,1.2455,1.248,1.2524,1.2563,1.2597,1.2667,1.2705,1.2734,1.2739,1.2767,1.2751,1.2735,1.2756,1.2755,1.2755,1.2757,1.2757,1.2753,1.2752,1.2752,0,1.2167,1.2218,1.2265,1.2297,1.2326,1.2373,1.2399,1.2433,1.25,1.252,1.2529,1.2619,1.266,1.2709,1.271,1.2732,1.2742,1.2743,1.2751,1.2751,1.2751,1.2754,1.2755,1.275,1.275,1.2751,1.2751,0,1.2183,1.2217,1.2231,1.2293,1.2323,1.2352,1.2406,1.2431,1.2461,1.2498,1.2543,1.2594,1.2648,1.2662,1.2691,1.2716,1.2721,1.274,1.2757,1.2747,1.2751,1.2752,1.2747,1.2748,1.2748,1.2749,0,0,1.2137,1.2226,1.223,1.2259,1.2325,1.2354,1.2387,1.2438,1.2459,1.2505,1.2534,1.2594,1.2612,1.2645,1.268,1.2698,1.27,1.2716,1.2718,1.2712,1.2732,1.2717,1.2717,1.272,1.272,1.2721,1.2728,0,1.2133,1.2192,1.2236,1.2279,1.2313,1.2359,1.2388,1.2433,1.247,1.2506,1.2547,1.2588,1.2609,1.263,1.265,1.2695,1.2705,1.2696,1.275,1.2751,1.2733,1.2719,1.2703,1.2707,1.2729,1.273,1.273,0,1.2137,1.2179,1.2224,1.2288,1.2304,1.2329,1.238,1.2414,1.2467,1.2492,1.2529,1.2566,1.2605,1.2618,1.2674,1.2667,1.2692,1.2718,1.2719,1.2726,1.2739,1.2726,1.2709,1.2709,1.2733,1.2732,1.2732,0,1.2099,1.2168,1.2204,1.2228,1.2303,1.232,1.2353,1.2406,1.2434,1.248,1.25,1.255,1.2578,1.2618,1.2667,1.2672,1.2719,1.2736,1.2742,1.2741,1.2749,1.2748,1.2736,1.2765,1.2765,1.2765,1.2765,0,1.209,1.2116,1.2188,1.2211,1.2242,1.2295,1.2325,1.2362,1.241,1.2442,1.2486,1.2516,1.258,1.2618,1.2657,1.2698,1.2711,1.2734,1.2744,1.2729,1.2726,1.2746,1.2747,1.2766,1.2766,1.2766,1.2766,0,1.2052,1.2102,1.2145,1.2213,1.2231,1.2251,1.2311,1.2335,1.2375,1.2415,1.2428,1.2491,1.2539,1.2592,1.2658,1.2685,1.2723,1.2738,1.2704,1.271,1.2713,1.2712,1.2714,1.2718,1.2744,1.2743,1.2743,0,1.2043,1.2064,1.2135,1.2159,1.2189,1.2228,1.2257,1.2311,1.234,1.2404,1.2421,1.2472,1.2515,1.2589,1.2642,1.2693,1.271,1.2707,1.2718,1.2703,1.271,1.2708,1.2711,1.2703,1.2703,1.2702,1.2702,0,1.2021,1.2045,1.2085,1.2134,1.2168,1.2209,1.2253,1.2271,1.2334,1.2365,1.2413,1.2447,1.2514,1.2564,1.2622,1.2659,1.2691,1.2699,1.2703,1.2688,1.2668,1.2679,1.2696,1.2698,1.2698,1.2699,1.2699,1.2699,1.1998,1.2019,1.2072,1.2116,1.2155,1.2195,1.2222,1.2265,1.2306,1.2363,1.2394,1.2442,1.2498,1.2579,1.2614,1.2654,1.2665,1.2671,1.2673,1.2673,1.2669,1.2662,1.2665,1.2666,1.2666,1.2666,1.2666,0,1.1978,1.2015,1.2055,1.2114,1.2149,1.2177,1.2227,1.2255,1.2296,1.2345,1.2386,1.2443,1.2493,1.2551,1.2605,1.2626,1.2643,1.2638,1.2637,1.2645,1.2656,1.2647,1.2624,1.2624,1.2624,1.2624,1.2624,1.2624,1.1972,1.201,1.2041,1.21,1.2138,1.2184,1.2211,1.2249,1.2288,1.2349,1.239,1.2427,1.248,1.2538,1.2586,1.2602,1.262,1.2611,1.2632,1.2641,1.2644,1.2648,1.2639,1.2615,1.2615,1.2618,1.2617,1.2617]},{"header":{"parameterUnit":"m.s-1","parameterCategory":1,"la1":30.2991,"la2":30.254,"lo1":-89.0895,"lo2":-89.0444,"dy":0.0017,"dx":0.0017,"nx":28,"ny":28,"refTime":"2024-07-05T03:00:00:Z","depth":0,"parameterNumber":3,"parameterNumberName":"V-component_of_WINDS"},"data":[0,0,0,0,0,0,0,0,0,0,0,0,0,0,0,0,0,0,0,0,0,0,0,0,0,0,0,0,0,0,0,0,0,0,0,0,0,0,0,0,0,0,0,0,0,0,0,0,0,0,0,0,0,0,0,0,0,0,3.4301,3.4302,0,3.4404,3.4405,3.4406,3.4439,3.4438,3.4438,3.4438,3.4537,3.454,3.4543,0,0,0,0,0,0,0,0,0,0,0,0,0,3.4127,3.413,3.4301,3.4303,3.4304,3.4404,3.4405,3.4407,3.4439,3.4438,3.4438,3.4437,3.4536,3.454,3.4544,0,0,0,0,0,0,0,0,0,0,0,0,0,3.4213,3.4131,3.4301,3.4332,3.4336,3.4404,3.4405,3.4407,3.4439,3.4438,3.4438,3.4437,3.4535,3.454,3.4544,3.4587,0,0,3.4558,3.456,0,0,0,0,0,0,0,0,3.4208,3.422,3.4326,3.433,3.4335,3.4408,3.438,3.4467,3.4439,3.44,3.4438,3.4437,3.4495,3.4502,3.4523,3.4591,3.4596,3.4559,3.4562,3.4564,3.4565,0,0,0,0,0,0,0,3.4202,3.4215,3.4342,3.4328,3.4333,3.4339,3.435,3.4397,3.445,3.4403,3.4406,3.4418,3.4497,3.4519,3.4526,3.4597,3.4559,3.4563,3.4566,3.4567,3.4703,3.4703,0,0,0,0,0,0,3.4192,3.421,3.4339,3.4345,3.4269,3.4343,3.4356,3.4385,3.4449,3.4458,3.4418,3.4419,3.4511,3.452,3.4529,3.4582,3.4564,3.4568,3.4571,3.4702,3.4703,3.4704,0,0,0,0,0,0,3.4188,3.4203,3.4334,3.4278,3.4296,3.4346,3.4379,3.4387,3.441,3.4461,3.447,3.4431,3.4511,3.4523,3.4572,3.4586,3.457,3.4574,3.4701,3.4702,3.4703,3.4688,0,0,0,0,0,0,3.4183,3.4202,3.422,3.4279,3.4298,3.4377,3.438,3.439,3.4418,3.442,3.4475,3.4484,3.4511,3.4565,3.4577,3.4592,3.4578,3.47,3.4701,3.4703,3.4688,3.4689,3.469,0,0,0,0,0,3.4177,3.4211,3.4221,3.4236,3.4323,3.4378,3.4389,3.4421,3.4419,3.4437,3.4469,3.4482,3.4582,3.457,3.4583,3.46,3.4699,3.4701,3.4703,3.4687,3.4688,3.469,0,0,0,0,0,0,3.4151,3.4219,3.4231,3.4285,3.4326,3.4384,3.4407,3.4422,3.4463,3.4463,3.4499,3.4511,3.4557,3.4584,3.4568,3.4643,3.4641,3.4646,3.4625,3.4626,3.4627,3.462,3.4582,0,0,0,0,0,3.4152,3.4193,3.425,3.4292,3.4312,3.4356,3.4381,3.4402,3.4445,3.4462,3.4498,3.4537,3.4578,3.4603,3.4643,3.4691,3.4703,3.4709,3.471,3.4711,3.4714,3.474,3.4743,3.471,3.471,3.471,0,0,3.4153,3.4196,3.4219,3.4288,3.4322,3.4361,3.437,3.4412,3.4441,3.4468,3.4517,3.4544,3.459,3.4639,3.4662,3.4662,3.4726,3.4713,3.4713,3.4717,3.4742,3.4745,3.4748,3.4711,3.4711,3.4711,0,0,3.4177,3.4214,3.4253,3.4287,3.4338,3.4367,3.4376,3.4432,3.4451,3.4501,3.4522,3.4556,3.4625,3.4656,3.4681,3.4715,3.4728,3.4727,3.4732,3.4756,3.4759,3.4761,3.4772,3.4776,3.473,3.473,3.473,0,3.4172,3.4235,3.427,3.4311,3.434,3.4367,3.4405,3.4436,3.4497,3.4515,3.4515,3.4601,3.4634,3.4689,3.4697,3.4717,3.4727,3.4721,3.4756,3.4759,3.4762,3.4772,3.4776,3.4729,3.473,3.473,3.473,0,3.4226,3.4269,3.4293,3.4353,3.4385,3.4424,3.4463,3.449,3.4508,3.4536,3.4585,3.4625,3.4673,3.4688,3.4706,3.4745,3.4744,3.4749,3.4748,3.4764,3.4774,3.4779,3.4729,3.4729,3.4729,3.4729,0,0,3.4236,3.4315,3.4323,3.435,3.4408,3.4441,3.448,3.4529,3.4551,3.4591,3.4624,3.4681,3.4686,3.4715,3.4736,3.4757,3.4779,3.476,3.4761,3.4761,3.4824,3.4819,3.4823,3.4788,3.4789,3.479,3.482,0,3.4266,3.434,3.4372,3.4431,3.447,3.4495,3.4529,3.4567,3.4594,3.4629,3.4658,3.4697,3.4702,3.4719,3.4741,3.4772,3.4792,3.477,3.4817,3.4818,3.4805,3.4829,3.4825,3.4851,3.4824,3.4825,3.4825,0,3.4312,3.4354,3.4417,3.4469,3.4487,3.4517,3.4563,3.4597,3.464,3.4657,3.4689,3.4709,3.4748,3.4744,3.4798,3.4783,3.4803,3.4821,3.4823,3.4828,3.4823,3.4834,3.486,3.4864,3.4832,3.4832,3.4831,0,3.4312,3.4384,3.4431,3.4453,3.4516,3.4536,3.4563,3.4605,3.4632,3.4671,3.4688,3.4731,3.4754,3.4786,3.4816,3.481,3.4867,3.4865,3.4881,3.488,3.4892,3.4891,3.4921,3.4906,3.4906,3.4906,3.4906,0,3.4342,3.4379,3.4432,3.446,3.4501,3.4537,3.4576,3.4604,3.4641,3.4674,3.4698,3.4727,3.4766,3.48,3.4823,3.4864,3.4874,3.4888,3.4894,3.4886,3.4884,3.49,3.4899,3.4907,3.4906,3.4906,3.4906,0,3.4349,3.4386,3.4438,3.4493,3.4508,3.4536,3.4582,3.4609,3.4637,3.4678,3.4689,3.4732,3.4773,3.4806,3.486,3.4875,3.4917,3.4924,3.4903,3.4906,3.492,3.4918,3.4961,3.4968,3.4948,3.4949,3.4949,0,3.4365,3.4395,3.4453,3.4478,3.4505,3.4544,3.4571,3.4606,3.4633,3.4683,3.4704,3.4747,3.4784,3.4848,3.4882,3.4922,3.493,3.4942,3.4936,3.4927,3.4929,3.4927,3.4929,3.4942,3.4943,3.4943,3.4943,0,3.439,3.4407,3.4447,3.4493,3.4525,3.4563,3.46,3.4618,3.466,3.4689,3.4732,3.476,3.4815,3.4856,3.49,3.4925,3.494,3.4944,3.495,3.4942,3.4929,3.4935,3.4905,3.4943,3.4943,3.4943,3.4943,3.4943,3.4402,3.4429,3.4474,3.4517,3.4549,3.4584,3.4612,3.4644,3.4681,3.473,3.4747,3.4791,3.4831,3.4892,3.4917,3.495,3.4952,3.496,3.4962,3.4963,3.4962,3.4924,3.4958,3.4958,3.4958,3.4958,3.4958,0,3.4428,3.4458,3.4497,3.455,3.4583,3.4596,3.4638,3.4664,3.4703,3.474,3.4776,3.4824,3.4865,3.4902,3.4944,3.4963,3.4971,3.4973,3.4971,3.4977,3.4959,3.495,3.4966,3.4966,3.4966,3.4966,3.4966,3.4966,3.4445,3.4491,3.4512,3.4573,3.4603,3.4648,3.467,3.4701,3.4731,3.4785,3.4819,3.4844,3.4881,3.4925,3.4962,3.4972,3.4985,3.4985,3.4997,3.4979,3.4978,3.4977,3.4968,3.4988,3.4988,3.5012,3.5012,3.5012]}]]